• En España
  • Lista de países
  • Para 7 días
  • Temperatura del agua
  • Mapa Satelital
  • El tiempo en el mapa
  • Informadores
  • user-avatar
    Iniciar sesión

    Tiempo cada hora Algiers

    Hoy, 19 Octubre, Viernes

    Tiempo Temperatura Precipitaciones Viento Presión Humedad
    00:00 +19°C° 0 mm 5 mps 744 mmHg 89%
    01:00 +19°C° 0.1 mm 5 mps 744 mmHg 89%
    02:00 +19°C° 0.1 mm 4 mps 744 mmHg 89%
    03:00 +19°C° 0.1 mm 4 mps 744 mmHg 89%
    04:00 +18°C° 0 mm 4 mps 745 mmHg 89%
    05:00 +18°C° 0 mm 4 mps 745 mmHg 89%
    06:00 +18°C° 0 mm 3 mps 745 mmHg 89%
    07:00 +19°C° 0 mm 3 mps 746 mmHg 83%
    08:00 +20°C° 0 mm 3 mps 746 mmHg 76%
    09:00 +22°C° 0 mm 3 mps 747 mmHg 70%
    10:00 +24°C° 0 mm 3 mps 747 mmHg 64%
    11:00 +25°C° 0 mm 3 mps 747 mmHg 58%
    12:00 +26°C° 0 mm 2 mps 747 mmHg 53%
    13:00 +26°C° 0 mm 3 mps 747 mmHg 53%
    14:00 +26°C° 0 mm 3 mps 747 mmHg 54%
    15:00 +26°C° 0 mm 3 mps 747 mmHg 54%
    16:00 +25°C° 0 mm 3 mps 747 mmHg 61%
    17:00 +24°C° 0 mm 3 mps 747 mmHg 68%
    18:00 +22°C° 0 mm 3 mps 747 mmHg 75%
    19:00 +22°C° 0 mm 3 mps 748 mmHg 76%
    20:00 +21°C° 0 mm 4 mps 748 mmHg 77%
    21:00 +21°C° 0 mm 4 mps 749 mmHg 77%
    22:00 +21°C° 0 mm 4 mps 749 mmHg 74%
    23:00 +21°C° 0 mm 4 mps 749 mmHg 70%

    Mañana, 20 Octubre, Sábado

    Tiempo Temperatura Precipitaciones Viento Presión Humedad
    00:00 +22°C° 0 mm 4 mps 749 mmHg 67%
    01:00 +22°C° 0 mm 4 mps 749 mmHg 64%
    02:00 +22°C° 0 mm 4 mps 749 mmHg 62%
    03:00 +22°C° 0 mm 4 mps 749 mmHg 60%
    04:00 +21°C° 0 mm 4 mps 749 mmHg 59%
    05:00 +21°C° 0 mm 4 mps 749 mmHg 58%
    06:00 +21°C° 0 mm 4 mps 749 mmHg 57%
    07:00 +23°C° 0 mm 4 mps 750 mmHg 52%
    08:00 +26°C° 0 mm 4 mps 750 mmHg 46%
    09:00 +28°C° 0 mm 4 mps 750 mmHg 40%
    10:00 +29°C° 0 mm 5 mps 750 mmHg 36%
    11:00 +30°C° 0 mm 5 mps 750 mmHg 32%
    12:00 +32°C° 0 mm 5 mps 750 mmHg 28%
    13:00 +32°C° 0 mm 6 mps 750 mmHg 28%
    14:00 +32°C° 0 mm 6 mps 750 mmHg 28%
    15:00 +32°C° 0 mm 6 mps 749 mmHg 28%
    16:00 +30°C° 0 mm 6 mps 749 mmHg 33%
    17:00 +28°C° 0 mm 6 mps 750 mmHg 38%
    18:00 +27°C° 0 mm 6 mps 750 mmHg 43%
    19:00 +26°C° 0 mm 5 mps 750 mmHg 44%
    20:00 +26°C° 0 mm 5 mps 751 mmHg 46%
    21:00 +25°C° 0 mm 5 mps 751 mmHg 47%
    22:00 +25°C° 0 mm 5 mps 751 mmHg 48%
    23:00 +23°C° 0 mm 5 mps 751 mmHg 49%

    Pasado mañana, 21 Octubre, Domingo

    Tiempo Temperatura Precipitaciones Viento Presión Humedad
    00:00 +23°C° 0 mm 4 mps 751 mmHg 51%
    01:00 +23°C° 0 mm 4 mps 751 mmHg 52%
    02:00 +22°C° 0 mm 4 mps 750 mmHg 53%
    03:00 +22°C° 0 mm 4 mps 750 mmHg 54%
    04:00 +22°C° 0 mm 4 mps 750 mmHg 55%
    05:00 +22°C° 0 mm 4 mps 750 mmHg 56%
    06:00 +21°C° 0 mm 4 mps 750 mmHg 56%
    07:00 +23°C° 0 mm 4 mps 751 mmHg 51%
    08:00 +26°C° 0 mm 4 mps 751 mmHg 46%
    09:00 +28°C° 0 mm 4 mps 751 mmHg 41%
    10:00 +29°C° 0 mm 4 mps 751 mmHg 38%
    11:00 +30°C° 0 mm 4 mps 751 mmHg 34%
    12:00 +32°C° 0 mm 4 mps 751 mmHg 31%
    13:00 +32°C° 0 mm 4 mps 750 mmHg 31%
    14:00 +32°C° 0 mm 5 mps 750 mmHg 31%
    15:00 +32°C° 0 mm 5 mps 750 mmHg 32%
    16:00 +29°C° 0 mm 5 mps 750 mmHg 39%
    17:00 +28°C° 0 mm 5 mps 750 mmHg 46%
    18:00 +26°C° 0 mm 5 mps 750 mmHg 53%
    19:00 +26°C° 0 mm 5 mps 750 mmHg 55%
    20:00 +25°C° 0 mm 4 mps 751 mmHg 57%
    21:00 +25°C° 0 mm 4 mps 751 mmHg 59%
    22:00 +23°C° 0 mm 4 mps 751 mmHg 59%
    23:00 +23°C° 0 mm 4 mps 751 mmHg 58%

    22 Octubre, Lunes

    Tiempo Temperatura Precipitaciones Viento Presión Humedad
    00:00 +23°C° 0 mm 4 mps 751 mmHg 58%
    01:00 +23°C° 0 mm 4 mps 751 mmHg 58%
    02:00 +22°C° 0 mm 4 mps 750 mmHg 58%
    03:00 +22°C° 0 mm 4 mps 750 mmHg 58%
    04:00 +22°C° 0 mm 4 mps 750 mmHg 60%
    05:00 +21°C° 0 mm 3 mps 750 mmHg 62%
    06:00 +21°C° 0 mm 3 mps 750 mmHg 64%
    07:00 +22°C° 0 mm 3 mps 751 mmHg 60%
    08:00 +25°C° 0 mm 3 mps 751 mmHg 56%
    09:00 +26°C° 0 mm 4 mps 751 mmHg 53%
    10:00 +27°C° 0 mm 4 mps 751 mmHg 52%
    11:00 +27°C° 0 mm 4 mps 751 mmHg 52%
    12:00 +28°C° 0 mm 4 mps 751 mmHg 52%
    13:00 +28°C° 0 mm 4 mps 751 mmHg 55%
    14:00 +27°C° 0 mm 4 mps 751 mmHg 58%
    15:00 +27°C° 0 mm 4 mps 751 mmHg 62%
    16:00 +25°C° 0 mm 4 mps 751 mmHg 69%
    17:00 +23°C° 0 mm 4 mps 751 mmHg 76%
    18:00 +22°C° 0 mm 3 mps 751 mmHg 83%
    19:00 +21°C° 0 mm 3 mps 752 mmHg 85%
    20:00 +21°C° 0 mm 3 mps 752 mmHg 87%
    21:00 +20°C° 0 mm 3 mps 753 mmHg 89%
    22:00 +20°C° 0 mm 2 mps 752 mmHg 90%
    23:00 +20°C° 0 mm 2 mps 752 mmHg 90%

    23 Octubre, Martes

    Tiempo Temperatura Precipitaciones Viento Presión Humedad
    00:00 +20°C° 0 mm 2 mps 752 mmHg 91%
    01:00 +19°C° 0 mm 2 mps 752 mmHg 91%
    02:00 +19°C° 0 mm 2 mps 752 mmHg 92%
    03:00 +19°C° 0 mm 3 mps 752 mmHg 92%
    04:00 +19°C° 0 mm 3 mps 752 mmHg 92%
    05:00 +19°C° 0 mm 3 mps 752 mmHg 91%
    06:00 +18°C° 0 mm 3 mps 753 mmHg 90%
    07:00 +19°C° 0 mm 3 mps 753 mmHg 83%
    08:00 +20°C° 0 mm 3 mps 753 mmHg 76%
    09:00 +21°C° 0 mm 4 mps 753 mmHg 68%
    10:00 +22°C° 0 mm 4 mps 753 mmHg 64%
    11:00 +22°C° 0 mm 4 mps 753 mmHg 59%
    12:00 +23°C° 0 mm 5 mps 753 mmHg 55%
    13:00 +23°C° 0 mm 5 mps 752 mmHg 56%
    14:00 +22°C° 0 mm 5 mps 752 mmHg 57%
    15:00 +22°C° 0 mm 5 mps 752 mmHg 58%
    16:00 +21°C° 0 mm 5 mps 752 mmHg 64%
    17:00 +20°C° 0 mm 5 mps 752 mmHg 70%
    18:00 +19°C° 0 mm 5 mps 752 mmHg 76%
    19:00 +19°C° 0 mm 4 mps 753 mmHg 77%
    20:00 +19°C° 0 mm 4 mps 753 mmHg 77%
    21:00 +18°C° 0 mm 4 mps 753 mmHg 78%
    22:00 +18°C° 0 mm 4 mps 753 mmHg 78%
    23:00 +18°C° 0 mm 4 mps 753 mmHg 78%

    24 Octubre, Miércoles

    Tiempo Temperatura Precipitaciones Viento Presión Humedad
    00:00 +17°C° 0 mm 4 mps 753 mmHg 79%
    01:00 +17°C° 0.1 mm 4 mps 753 mmHg 80%
    02:00 +17°C° 0.1 mm 4 mps 753 mmHg 80%
    03:00 +16°C° 0.1 mm 3 mps 753 mmHg 81%
    04:00 +15°C° 0.1 mm 4 mps 753 mmHg 80%
    05:00 +15°C° 0.1 mm 4 mps 753 mmHg 80%
    06:00 +15°C° 0.1 mm 5 mps 753 mmHg 79%
    07:00 +16°C° 0.1 mm 5 mps 753 mmHg 74%
    08:00 +17°C° 0.1 mm 6 mps 753 mmHg 70%
    09:00 +19°C° 0.1 mm 6 mps 753 mmHg 65%
    10:00 +19°C° 0.3 mm 6 mps 753 mmHg 65%
    11:00 +19°C° 0.3 mm 6 mps 753 mmHg 66%
    12:00 +19°C° 0.3 mm 6 mps 753 mmHg 66%
    13:00 +19°C° 0.6 mm 6 mps 753 mmHg 70%
    14:00 +19°C° 0.6 mm 6 mps 753 mmHg 75%
    15:00 +17°C° 0.6 mm 6 mps 752 mmHg 79%
    16:00 +17°C° 0.4 mm 5 mps 753 mmHg 81%
    17:00 +17°C° 0.4 mm 5 mps 753 mmHg 83%
    18:00 +17°C° 0.4 mm 5 mps 753 mmHg 85%
    19:00 +17°C° 0.2 mm 5 mps 753 mmHg 85%
    20:00 +17°C° 0.2 mm 4 mps 754 mmHg 86%
    21:00 +17°C° 0.2 mm 4 mps 754 mmHg 87%
    22:00 +17°C° 0.2 mm 4 mps 754 mmHg 88%
    23:00 +17°C° 0.2 mm 4 mps 753 mmHg 89%
    Mostrar más